Wind_Speed
28 29 28 28 28 29 30 31 33 32 32 31 32 33 33 33 33 33 33 33 33 34 34 34 35 36 38 39 40 40 41 42 42 43 43 43 44 45 46 46 45 44 44 44
27 28 30 30 29 30 30 31 32 33 32 31 32 34 34 34 34 34 33 33 33 33 34 35 35 36 36 37 38 38 39 40 41 42 43 43 43 44 45 46 46 46 46 45
27 27 29 30 29 30 31 31 31 32 31 32 32 33 34 34 35 35 34 34 34 34 34 34 34 35 35 35 36 37 38 39 40 41 42 42 42 42 43 44 44 45 46 46
28 29 30 29 28 29 29 29 30 31 31 31 32 33 33 34 34 35 35 35 34 34 34 34 34 34 34 35 35 36 36 37 38 39 40 40 40 40 40 41 42 43 44 45
28 29 29 28 27 27 29 29 29 30 30 31 32 32 32 33 33 34 34 34 34 34 34 34 34 34 35 35 35 35 35 36 36 37 37 38 38 38 39 39 40 41 42 42
27 28 29 27 27 27 29 29 28 29 29 29 30 31 31 32 32 33 33 33 34 34 34 34 34 34 34 34 35 35 35 35 35 35 36 36 37 37 37 38 38 39 39 40
26 28 28 27 26 27 28 28 27 28 28 28 29 29 30 30 31 32 32 33 34 34 34 34 34 34 34 34 34 34 34 34 34 34 34 34 35 35 35 36 37 37 37 38
26 28 26 26 26 26 27 27 27 27 27 28 28 28 29 30 30 31 32 32 33 33 34 33 33 33 33 33 33 33 33 33 33 33 34 34 34 34 35 35 35 35 35 35
25 25 25 25 25 25 26 27 27 27 27 28 28 28 28 29 30 30 31 31 32 31 31 32 32 33 32 32 32 33 33 33 33 33 33 33 33 33 33 33 33 33 34 35
24 23 24 24 24 23 24 25 26 27 27 28 28 28 28 29 29 29 29 30 30 30 30 30 31 32 32 32 32 32 32 32 32 32 32 32 32 31 32 32 32 33 33 34
24 24 24 24 24 24 24 26 26 27 28 28 28 28 28 28 28 28 29 29 29 29 29 30 30 31 31 31 31 31 31 30 31 31 31 31 31 31 31 31 31 31 31 32
24 24 24 24 24 25 25 26 27 27 27 27 28 28 28 28 28 28 28 28 28 28 28 29 29 29 29 30 30 30 30 30 29 29 29 29 29 30 30 30 30 30 30 31
24 24 24 25 25 25 26 26 26 27 27 28 28 29 29 28 28 28 27 28 28 28 28 28 28 29 29 29 29 29 29 29 29 28 28 28 28 28 28 29 29 29 30 29
25 25 25 25 25 25 25 26 26 27 28 29 29 29 28 28 28 28 28 28 28 28 28 28 28 28 28 28 28 28 28 28 28 27 27 27 27 27 27 28 28 28 28 28
25 25 25 25 26 26 26 26 26 27 28 28 29 29 28 28 27 27 27 27 27 27 28 27 27 27 27 27 27 27 26 26 26 26 26 26 26 26 27 27 27 27 27 27
24 24 24 25 25 24 24 25 26 27 28 28 28 28 28 27 27 27 26 27 27 27 27 26 26 26 26 26 26 25 25 25 25 25 25 25 25 25 25 25 25 25 26 26
23 23 23 23 23 23 24 25 26 26 26 27 27 26 26 25 25 25 25 26 26 26 26 25 25 25 25 25 24 25 25 25 25 25 25 25 24 24 24 24 24 25 25 25
22 21 21 22 23 23 24 25 25 25 25 25 24 24 24 24 24 24 24 25 25 24 25 25 25 24 24 23 23 24 23 24 24 24 24 24 24 24 23 24 24 24 24 24
19 20 20 21 21 22 23 23 24 25 25 24 24 23 23 23 23 23 23 23 23 23 24 24 23 23 23 23 23 23 23 23 23 23 23 23 23 23 23 23 23 23 23 22
18 19 20 21 21 21 22 23 23 24 24 23 22 22 22 22 22 22 22 22 22 22 22 22 22 22 22 22 22 22 22 22 22 22 22 22 22 22 23 23 23 22 22 22
18 19 19 20 20 21 22 22 22 22 22 22 21 21 20 20 21 21 21 21 21 21 21 20 20 20 21 21 20 20 20 20 21 21 21 21 22 22 22 22 22 22 21 21
18 18 19 19 20 21 22 22 22 21 21 21 20 20 20 20 20 21 21 21 20 20 20 20 20 19 19 19 19 20 20 20 20 21 21 21 21 22 21 21 21 21 21 20
18 19 19 20 20 21 21 21 21 21 21 20 20 20 19 20 20 20 19 20 20 19 19 19 19 19 19 19 20 20 20 20 20 21 21 21 21 21 21 20 20 20 20 20
18 19 19 20 20 20 20 21 21 21 21 20 20 20 20 20 20 20 20 19 19 19 19 19 19 20 20 20 21 21 20 20 20 20 21 21 20 20 20 19 19 19 19 19
19 20 20 21 21 21 21 21 21 20 20 20 20 20 20 20 20 20 20 20 20 20 20 20 20 20 21 21 21 21 21 21 21 21 21 21 20 20 19 19 19 19 19 19
20 20 21 21 22 22 22 21 21 21 20 20 20 20 20 20 20 20 20 21 21 21 20 20 20 20 20 20 20 21 21 21 21 21 21 20 20 20 19 19 18 18 18 18
20 21 22 22 22 22 21 21 21 21 21 21 21 21 20 20 20 20 20 20 21 20 20 21 20 20 20 20 20 20 20 20 20 20 20 19 19 19 18 18 17 17 17 17
Wind_Direction
259 260 260 260 259 259 260 263 264 265 265 266 266 266 267 268 269 269 269 268 267 266 265 265 265 265 266 266 267 268 269 268 269 270 271 272 270 270 270 270 270 269 269 268
260 260 261 261 261 262 263 264 265 266 266 266 267 267 268 269 269 269 269 268 268 268 266 265 265 266 267 267 268 268 269 270 271 271 272 273 273 272 271 271 270 269 269 269
261 261 262 263 264 265 266 268 268 268 267 266 267 268 269 269 269 270 270 269 268 269 269 268 267 267 267 268 269 270 271 272 273 273 273 274 275 275 273 272 272 271 271 271
263 263 264 268 267 267 268 268 269 269 268 267 267 267 269 270 271 270 269 269 269 269 269 269 268 268 268 269 270 271 272 273 273 273 273 274 275 276 275 274 273 273 272 273
265 267 268 269 271 272 270 269 269 269 268 267 267 267 269 270 271 271 269 269 269 269 270 270 270 269 269 270 271 272 273 273 273 274 275 276 276 276 277 276 275 275 275 275
266 269 271 272 273 273 272 271 271 271 270 269 269 269 270 270 271 271 271 270 269 270 270 270 270 270 270 271 272 273 273 273 273 274 275 276 277 278 278 278 277 277 277 277
268 270 273 274 275 275 273 274 272 272 272 272 272 271 271 273 272 272 272 271 270 270 271 271 271 270 271 272 272 272 273 273 274 275 276 277 278 278 279 279 279 279 279 279
271 272 274 277 277 275 274 273 273 273 273 273 273 274 274 275 274 273 272 272 271 271 271 270 271 271 272 272 272 272 272 274 275 276 276 276 278 279 280 281 281 281 281 280
275 277 277 277 276 275 274 273 273 274 275 275 275 275 276 276 275 276 275 273 272 272 270 270 270 271 272 272 272 272 273 273 274 275 276 277 278 279 280 281 283 283 282 282
275 276 277 277 276 276 275 274 275 276 277 276 275 276 275 275 276 276 275 274 273 273 271 270 270 271 271 271 272 273 273 274 274 276 277 278 279 279 281 283 284 285 285 283
276 276 275 275 276 276 275 276 277 277 278 277 276 277 277 277 277 276 275 274 274 274 273 273 272 271 271 271 272 272 272 273 275 277 278 278 279 280 282 284 286 286 286 285
276 276 275 275 276 276 277 278 278 277 277 278 278 278 278 277 277 277 276 274 274 274 274 273 272 272 272 273 273 273 273 274 275 277 278 279 280 281 283 284 285 287 287 287
275 275 275 276 278 279 279 280 280 280 279 279 279 279 279 278 277 277 276 275 273 274 275 274 274 274 274 274 273 273 274 274 275 277 278 279 281 282 283 284 286 287 288 288
275 275 275 277 279 280 280 280 281 281 281 281 280 279 278 277 277 277 277 276 275 275 275 275 274 274 274 274 273 274 274 275 275 276 278 280 281 282 282 284 285 286 288 289
275 275 275 277 279 281 282 282 282 282 282 281 280 280 278 277 276 277 278 278 276 276 276 275 274 274 273 273 274 274 274 275 276 278 280 281 282 283 284 285 286 287 288 289
277 276 276 278 280 282 283 283 284 285 285 283 282 281 279 276 276 277 278 277 276 276 276 275 274 274 274 273 272 273 273 274 276 278 280 281 283 284 285 285 286 287 288 288
277 278 279 279 281 283 285 286 287 288 287 286 284 282 279 277 277 277 277 277 277 276 275 275 275 274 274 273 273 274 274 276 278 278 279 280 282 283 284 285 286 288 289 288
277 278 280 282 284 285 287 288 288 288 288 287 285 282 280 278 278 278 278 278 278 276 275 276 275 274 274 274 275 275 276 278 279 279 280 280 282 282 283 285 288 289 289 288
276 278 282 284 286 286 287 288 288 289 288 287 285 283 281 279 279 280 280 280 278 277 277 277 276 275 274 274 274 275 277 279 279 279 279 280 282 283 284 287 288 290 289 288
278 281 283 286 287 289 290 290 290 290 290 288 285 283 282 282 281 282 282 281 280 279 278 278 277 275 274 274 275 276 277 279 280 280 280 282 283 283 285 287 289 290 289 289
282 284 285 287 289 290 292 292 292 291 290 289 286 283 282 282 282 284 284 282 281 279 278 277 276 274 273 274 274 276 278 280 280 280 282 283 284 284 285 286 287 289 289 289
287 288 289 289 291 293 294 294 294 292 290 288 285 283 282 282 282 284 284 282 280 278 277 276 275 274 273 274 276 278 280 280 281 282 283 284 285 285 285 286 287 289 289 289
289 291 292 292 293 295 296 296 295 294 292 289 285 282 281 281 282 283 283 282 280 278 276 276 275 274 274 276 277 279 279 280 281 283 284 285 286 286 285 286 288 289 289 289
291 291 292 294 296 297 298 297 297 295 293 290 286 282 281 280 281 282 282 281 279 278 277 277 277 276 276 276 277 277 277 279 281 283 284 286 286 285 285 285 288 289 289 290
292 292 293 295 297 297 297 297 296 295 293 291 288 284 282 281 281 281 281 280 279 278 278 278 278 278 277 277 277 277 276 278 280 282 284 284 284 284 284 285 287 287 288 290
292 294 295 296 297 297 296 295 295 294 293 292 288 285 283 282 283 283 282 281 279 278 278 279 280 279 279 278 278 277 278 279 280 280 280 280 281 281 282 283 285 285 287 289
293 294 296 297 297 296 296 296 295 294 292 290 287 285 284 284 284 284 284 283 282 280 279 279 280 280 280 280 279 278 278 278 278 278 278 278 279 279 280 282 283 283 285 288
Height
5587 5588 5589 5591 5592 5592 5592 5593 5594 5596 5597 5598 5597 5597 5597 5597 5598 5598 5599 5599 5599 5599 5599 5600 5600 5600 5600 5600 5600 5600 5600 5600 5600 5600 5600 5599 5599 5599 5598 5598 5598 5597 5597 5596
5580 5580 5581 5582 5584 5584 5585 5585 5586 5587 5589 5590 5588 5588 5588 5589 5589 5589 5590 5590 5590 5590 5590 5590 5590 5590 5590 5590 5590 5589 5589 5589 5589 5589 5588 5587 5587 5586 5586 5586 5585 5585 5585 5584
5573 5573 5573 5575 5577 5577 5577 5578 5578 5578 5581 5580 5580 5580 5580 5580 5580 5580 5580 5580 5580 5581 5581 5581 5580 5580 5580 5580 5579 5579 5579 5578 5578 5577 5577 5576 5575 5574 5573 5573 5573 5572 5572 5571
5564 5566 5566 5571 5569 5569 5569 5570 5570 5570 5571 5571 5571 5571 5571 5571 5571 5571 5571 5571 5571 5571 5571 5571 5571 5570 5570 5570 5569 5569 5568 5568 5567 5566 5566 5565 5564 5563 5562 5562 5561 5560 5560 5559
5557 5557 5558 5561 5562 5561 5561 5562 5562 5562 5562 5562 5562 5562 5563 5562 5562 5561 5561 5562 5561 5561 5561 5561 5561 5560 5560 5560 5559 5559 5558 5557 5557 5556 5555 5554 5553 5552 5551 5550 5550 5549 5548 5547
5550 5550 5551 5555 5554 5553 5554 5554 5555 5554 5553 5553 5553 5554 5555 5553 5553 5552 5552 5552 5552 5551 5551 5551 5551 5550 5550 5550 5549 5549 5548 5547 5546 5545 5545 5544 5543 5541 5540 5540 5539 5538 5537 5536
5544 5543 5544 5546 5546 5546 5547 5548 5546 5545 5545 5545 5545 5545 5545 5544 5543 5543 5542 5542 5542 5542 5541 5541 5541 5541 5540 5540 5539 5538 5538 5537 5536 5535 5534 5533 5532 5531 5530 5529 5528 5527 5526 5525
5537 5537 5540 5539 5538 5538 5538 5538 5538 5537 5537 5537 5537 5536 5536 5535 5534 5534 5533 5533 5532 5532 5531 5531 5531 5530 5530 5530 5529 5528 5528 5527 5526 5525 5524 5523 5522 5521 5520 5519 5518 5517 5515 5514
5532 5533 5532 5530 5530 5530 5530 5530 5530 5530 5529 5529 5528 5528 5527 5526 5526 5525 5524 5523 5523 5522 5522 5521 5521 5520 5520 5520 5519 5518 5518 5517 5516 5515 5515 5514 5513 5512 5510 5509 5508 5507 5505 5504
5525 5525 5524 5523 5523 5523 5522 5522 5522 5522 5521 5521 5520 5519 5519 5518 5517 5516 5515 5514 5513 5513 5512 5512 5511 5511 5510 5509 5509 5508 5508 5507 5507 5506 5505 5504 5503 5502 5501 5500 5498 5497 5495 5494
5518 5518 5517 5517 5516 5516 5516 5515 5515 5514 5513 5513 5512 5511 5510 5509 5508 5507 5506 5505 5505 5504 5503 5503 5502 5501 5500 5500 5499 5499 5498 5498 5497 5496 5496 5495 5494 5493 5492 5490 5489 5487 5486 5484
5512 5511 5511 5510 5510 5509 5508 5508 5507 5506 5505 5504 5503 5502 5501 5500 5499 5498 5498 5497 5496 5495 5494 5493 5493 5492 5491 5490 5490 5490 5489 5489 5488 5487 5486 5485 5485 5484 5482 5481 5480 5478 5476 5475
5504 5503 5503 5503 5502 5501 5501 5500 5499 5498 5497 5496 5495 5494 5493 5492 5491 5490 5489 5488 5487 5486 5485 5484 5484 5483 5482 5481 5481 5481 5480 5480 5479 5478 5477 5477 5476 5475 5474 5473 5471 5469 5468 5466
5496 5496 5496 5496 5495 5494 5493 5492 5492 5490 5489 5488 5487 5485 5484 5483 5482 5481 5480 5479 5478 5478 5477 5476 5475 5474 5473 5473 5472 5472 5471 5471 5470 5470 5469 5468 5467 5466 5466 5464 5463 5461 5459 5458
5489 5489 5489 5488 5487 5487 5486 5485 5484 5483 5481 5480 5478 5477 5476 5475 5474 5473 5472 5470 5470 5469 5468 5467 5466 5465 5464 5464 5464 5463 5463 5463 5462 5461 5461 5460 5459 5458 5458 5456 5455 5454 5452 5450
5482 5481 5481 5481 5480 5479 5478 5477 5476 5474 5473 5471 5469 5468 5466 5465 5465 5464 5463 5462 5461 5460 5459 5458 5458 5457 5456 5456 5455 5455 5455 5454 5454 5454 5453 5453 5452 5451 5450 5449 5447 5446 5445 5443
5475 5474 5474 5473 5473 5472 5471 5469 5468 5466 5464 5462 5460 5459 5457 5457 5456 5455 5454 5453 5452 5452 5451 5450 5449 5448 5448 5448 5447 5447 5447 5447 5446 5446 5446 5445 5444 5443 5443 5441 5440 5439 5437 5435
5468 5468 5467 5466 5465 5464 5463 5461 5460 5458 5456 5454 5453 5451 5450 5449 5448 5447 5447 5445 5444 5443 5443 5442 5441 5441 5440 5440 5440 5440 5439 5439 5439 5439 5438 5438 5437 5436 5435 5434 5433 5431 5430 5428
5462 5461 5461 5459 5458 5457 5456 5454 5453 5451 5449 5447 5446 5444 5443 5442 5441 5440 5439 5438 5437 5436 5435 5434 5434 5433 5433 5433 5433 5433 5432 5432 5432 5431 5431 5430 5430 5429 5428 5427 5426 5424 5423 5421
5456 5455 5454 5453 5452 5450 5449 5447 5445 5444 5442 5440 5439 5437 5436 5435 5434 5433 5432 5431 5430 5429 5428 5427 5426 5426 5426 5426 5426 5426 5426 5425 5425 5424 5424 5424 5423 5422 5421 5420 5419 5418 5416 5415
5450 5449 5448 5447 5446 5444 5442 5441 5439 5437 5435 5433 5432 5430 5429 5428 5427 5426 5425 5424 5423 5422 5421 5420 5420 5419 5419 5419 5419 5419 5419 5419 5418 5418 5418 5417 5416 5415 5415 5413 5412 5411 5410 5409
5445 5444 5442 5441 5440 5438 5436 5434 5432 5430 5428 5427 5425 5424 5423 5422 5421 5420 5418 5417 5416 5415 5414 5414 5413 5413 5413 5413 5413 5413 5413 5412 5412 5412 5411 5410 5410 5409 5408 5407 5406 5405 5403 5402
5439 5438 5437 5435 5434 5432 5430 5428 5426 5424 5422 5421 5419 5418 5417 5416 5415 5414 5412 5411 5410 5409 5408 5408 5407 5407 5407 5407 5407 5407 5406 5406 5406 5405 5405 5404 5403 5402 5401 5400 5399 5398 5397 5396
5434 5433 5431 5430 5428 5426 5424 5422 5420 5418 5416 5414 5413 5412 5411 5410 5409 5407 5406 5405 5404 5403 5403 5402 5401 5401 5401 5400 5400 5400 5400 5399 5399 5399 5398 5397 5396 5396 5395 5394 5393 5392 5391 5390
5428 5427 5425 5424 5422 5420 5418 5416 5414 5412 5410 5409 5407 5406 5405 5404 5403 5401 5400 5399 5398 5397 5396 5396 5395 5395 5394 5394 5393 5393 5393 5393 5392 5392 5391 5391 5390 5389 5389 5388 5387 5386 5385 5384
5422 5421 5419 5417 5416 5414 5412 5410 5408 5406 5404 5403 5401 5400 5399 5397 5396 5395 5394 5393 5392 5391 5390 5389 5388 5388 5387 5387 5386 5386 5386 5386 5385 5385 5384 5384 5383 5383 5382 5382 5381 5380 5379 5378
5416 5415 5413 5411 5409 5407 5405 5404 5402 5400 5398 5397 5395 5394 5392 5391 5390 5388 5387 5386 5385 5384 5383 5382 5382 5381 5381 5380 5380 5379 5379 5379 5378 5378 5378 5377 5377 5377 5376 5375 5375 5374 5373 5372